Location: The Saddle
(36.8333°N, 80.3417°W)
Time: 19:05:55
(UTC-05:00)

Tiros 1 - Visible Passes

Search period start: 03 December 2023 00:00
Search period end: 13 December 2023 00:00
Orbit: 626 x 659 km, 48.4° (Epoch: 03 December)

Date Brightness Start Highest point End Pass type
(mag) Time Alt. Az. Time Alt. Az. Time Alt. Az.
03 Dec 7.1 05:20:47 65° NW 05:21:00 66° NNW 05:25:46 10° NE visible
04 Dec 9.9 04:07:14 16° ENE 04:07:14 16° ENE 04:08:10 10° ENE visible
04 Dec 7.8 05:44:50 33° NW 05:45:46 37° NNW 05:50:13 10° NE visible
05 Dec 9.3 04:31:08 22° NE 04:31:08 22° NE 04:32:49 10° NE visible
05 Dec 8.4 06:08:43 19° NW 06:10:44 25° NNW 06:14:42 10° NE visible
06 Dec 8.8 04:54:53 26° NNE 04:54:53 26° NNE 04:57:15 10° NE visible
06 Dec 8.8 06:32:29 11° NW 06:35:49 21° N 06:39:25 10° NE visible
07 Dec 8.6 05:18:34 25° N 05:18:34 25° N 05:21:43 10° NE visible
08 Dec 8.7 05:42:11 21° NNW 05:42:43 21° N 05:46:22 10° NE visible
09 Dec 9.8 04:28:10 13° NE 04:28:10 13° NE 04:28:43 10° NE visible
09 Dec 8.9 06:05:44 15° NNW 06:07:51 20° N 06:11:24 10° NE visible
10 Dec 9.4 04:51:41 17° NNE 04:51:41 17° NNE 04:53:19 10° NE visible
10 Dec 8.8 06:29:15 11° NW 06:32:58 23° NNE 06:36:47 10° ENE visible
11 Dec 9.0 05:15:11 20° N 05:15:11 20° N 05:18:16 10° NE visible
11 Dec 8.4 06:53:38 10° NW 06:57:57 32° NNE 07:02:14 10° E visible
12 Dec 8.8 05:38:40 20° N 05:39:50 22° N 05:43:36 10° ENE visible
